FW2048 Weather Reports


time (UTC)temp
C
wind
direction
speed
KPH
gust
KPH
rain 1hr
cm
rain 24hr
cm
rain mn
cm
humidity
%
barometer
mb
20260906150053 29 0 1.6 6.4 0.00 0.00 0.00 67 1010.4
20260906144602 27 178 0.0 4.8 0.00 0.00 0.00 72 1010.4
20260906143044 26 86 0.0 4.8 0.00 0.00 0.00 76 1010.4
20260906141551 25 22 0.0 4.8 0.00 0.00 0.00 81 1010.4
20260906140045 23 0 0.0 4.8 0.00 0.00 0.00 85 1010.2
20260906134556 23 0 0.0 0.0 0.00 0.00 0.00 87 1010.0
20260906133046 23 0 0.0 0.0 0.00 0.00 0.00 87 1010.0
20260906131552 22 0 0.0 0.0 0.00 0.00 0.00 86 1010.1
20260906130100 22 0 0.0 0.0 0.00 0.00 0.00 85 1010.0
20260906124550 22 0 0.0 0.0 0.00 0.00 0.00 85 1009.9
20260906123046 22 0 0.0 0.0 0.00 0.00 0.00 84 1009.7
20260906121545 22 0 0.0 0.0 0.00 0.00 0.00 84 1009.4
20260906120055 22 0 0.0 0.0 0.00 0.00 0.00 83 1009.5
20260906114557 22 0 0.0 0.0 0.00 0.00 0.00 82 1009.3
20260906113054 22 0 0.0 3.2 0.00 0.00 0.00 82 1009.3
20260906111545 22 0 0.0 3.2 0.00 0.00 0.00 82 1009.1
20260906110045 22 97 1.6 4.8 0.00 0.00 0.00 81 1009.1
20260906104549 22 111 1.6 4.8 0.00 0.00 0.00 82 1008.9
20260906103047 22 102 1.6 4.8 0.00 0.00 0.00 82 1008.8
20260906101553 22 0 0.0 1.6 0.00 0.00 0.00 81 1008.6
20260906100052 22 0 0.0 0.0 0.00 0.00 0.00 80 1008.5
20260906094548 23 0 0.0 0.0 0.00 0.00 0.00 80 1008.5
20260906093046 23 0 0.0 0.0 0.00 0.00 0.00 79 1008.4
20260906091551 23 0 0.0 0.0 0.00 0.00 0.00 79 1008.5
20260906090049 23 0 0.0 0.0 0.00 0.00 0.00 79 1008.4
20260906084546 23 0 0.0 0.0 0.00 0.00 0.00 79 1008.2
20260906083048 23 0 0.0 0.0 0.00 0.00 0.00 78 1008.4
20260906081557 23 0 0.0 0.0 0.00 0.00 0.00 78 1008.3
20260906080052 23 0 0.0 0.0 0.00 0.00 0.00 78 1008.3
20260906074604 23 0 0.0 0.0 0.00 0.00 0.00 78 1008.4
20260906073045 23 0 0.0 0.0 0.00 0.00 0.00 78 1008.6
20260906071555 23 0 0.0 0.0 0.00 0.00 0.00 77 1008.7
20260906070052 23 0 0.0 0.0 0.00 0.00 0.00 78 1008.7
20260906064546 24 0 0.0 0.0 0.00 0.00 0.00 77 1008.8
20260906063046 24 0 0.0 0.0 0.00 0.00 0.00 77 1008.8
20260906061550 24 0 0.0 0.0 0.00 0.00 0.00 77 1008.9
20260906060052 24 0 0.0 0.0 0.00 0.00 0.00 76 1008.9
20260906054547 25 0 0.0 0.0 0.00 0.00 0.00 76 1008.9
20260906053054 25 0 0.0 1.6 0.00 0.00 0.00 75 1009.0
20260906051601 25 79 0.0 3.2 0.00 0.00 0.00 75 1008.8
20260906050055 25 0 0.0 3.2 0.00 0.00 0.00 75 1008.7
20260906044545 25 79 0.0 3.2 0.00 0.00 0.00 74 1008.6
20260906043053 25 0 0.0 0.0 0.00 0.00 0.00 74 1008.5
20260906041552 25 0 0.0 3.2 0.00 0.00 0.00 72 1008.8
20260906040050 26 76 0.0 1.6 0.00 0.00 0.00 72 1008.6
20260906034545 26 0 0.0 0.0 0.00 0.00 0.00 71 1008.7
20260906033053 26 0 0.0 0.0 0.00 0.00 0.00 70 1008.7
20260906031559 26 0 0.0 0.0 0.00 0.00 0.00 70 1008.6
20260906030048 27 0 0.0 0.0 0.00 0.00 0.00 69 1008.7
20260906024547 27 0 0.0 1.6 0.00 0.00 0.00 68 1008.6
20260906023044 27 0 0.0 0.0 0.00 0.00 0.00 67 1008.2
20260906021550 28 0 0.0 1.6 0.00 0.00 0.00 66 1008.1
20260906020056 28 76 0.0 1.6 0.00 0.00 0.00 64 1008.0
20260906014546 29 76 0.0 3.2 0.00 0.00 0.00 63 1007.7
20260906013045 29 74 1.6 3.2 0.00 0.00 0.00 61 1007.6
20260906011545 30 0 0.0 0.0 0.00 0.00 0.00 58 1007.5
20260906010055 31 0 0.0 3.2 0.00 0.00 0.00 56 1007.3
20260906004550 32 0 0.0 3.2 0.00 0.00 0.00 54 1007.3
20260906003054 33 0 0.0 3.2 0.00 0.00 0.00 51 1007.3
20260906001545 33 96 0.0 3.2 0.00 0.00 0.00 48 1007.3
20260906000053 34 0 0.0 8.0 0.00 0.00 0.00 45 1007.4
20260905234547 36 79 1.6 4.8 0.00 0.00 0.00 44 1007.5
20260905233053 37 101 0.0 3.2 0.00 0.00 0.00 41 1007.3
20260905231546 38 158 0.0 4.8 0.00 0.00 0.00 38 1007.2
20260905230056 38 105 1.6 4.8 0.00 0.00 0.00 38 1007.0
20260905224601 38 191 0.0 3.2 0.00 0.00 0.00 36 1007.0
20260905223047 39 0 0.0 6.4 0.00 0.00 0.00 32 1006.8
20260905221556 38 0 3.2 8.0 0.00 0.00 0.00 32 1006.9
20260905220104 40 173 1.6 4.8 0.00 0.00 0.00 31 1006.8
20260905214547 40 315 1.6 6.4 0.00 0.00 0.00 30 1006.9
20260905213049 40 291 3.2 6.4 0.00 0.00 0.00 30 1006.9
20260905211612 40 11 3.2 6.4 0.00 0.00 0.00 31 1007.0
20260905210054 40 0 3.2 6.4 0.00 0.00 0.00 31 1007.1
20260905204557 40 45 1.6 8.0 0.00 0.00 0.00 30 1007.3
20260905203110 39 300 1.6 11.3 0.00 0.00 0.00 31 1007.5
20260905201546 38 223 3.2 8.0 0.00 0.00 0.00 32 1007.8
20260905200058 38 344 0.0 4.8 0.00 0.00 0.00 33 1008.1
20260905194549 39 62 1.6 8.0 0.00 0.00 0.00 31 1008.4
20260905193044 40 234 1.6 8.0 0.00 0.00 0.00 31 1008.6
20260905191545 40 114 1.6 8.0 0.00 0.00 0.00 31 1008.7
20260905190049 39 202 1.6 6.4 0.00 0.00 0.00 31 1008.8
20260905184550 38 0 3.2 9.7 0.00 0.00 0.00 33 1009.0
20260905183045 38 108 1.6 4.8 0.00 0.00 0.00 35 1009.3
20260905181605 37 352 3.2 4.8 0.00 0.00 0.00 35 1009.4
20260905180051 37 161 1.6 8.0 0.00 0.00 0.00 38 1009.6
20260905174551 37 167 1.6 8.0 0.00 0.00 0.00 37 1009.8
20260905173056 36 63 1.6 6.4 0.00 0.00 0.00 38 1009.9
20260905171552 36 41 1.6 8.0 0.00 0.00 0.00 41 1010.1
20260905170053 35 334 3.2 4.8 0.00 0.00 0.00 42 1010.2
20260905164546 35 11 3.2 8.0 0.00 0.00 0.00 47 1010.5
20260905163054 33 103 1.6 9.7 0.00 0.00 0.00 50 1010.4
20260905161545 33 327 1.6 11.3 0.00 0.00 0.00 51 1010.7
20260905160115 32 5 1.6 9.7 0.00 0.00 0.00 52 1010.8
20260905154549 32 88 1.6 11.3 0.00 0.00 0.00 53 1010.8
20260905153044 32 90 3.2 11.3 0.00 0.00 0.00 54 1010.9
20260905151547 32 39 1.6 8.0 0.00 0.00 0.00 56 1010.8